DW5247 Lemo FI current weather conditions

sailwx.info

Wind from 045 at 0 knots gusting 3

Air temperature 22.8° C
Dewpoint 13.5° C

Last reported at 2016-Jul-01 16:47 UTC.
Time now 2016-Jul-01 17:17 UTC

Location: N 62°41' E 029°49'.
View on Google Maps.

See reports from other nearby stations

  
Tides and Currents Weather Stations Pressure Air Temp Water Temp Dewpoint Dewpoint Depression Visibility Wind Speed Wind Dir Waves Ship Positions
date/time (UTC)wind fromknots sea level pressurealtimeterstation pressurevisibilityair tempwater tempwave heightnotes
2016-Jul-01 16:47 045 0 gusting 3 22.8
2016-Jul-01 16:42 135 0 gusting 2 22.8
2016-Jul-01 16:37 068 0 gusting 2 22.8
2016-Jul-01 16:32 068 0 gusting 2 22.8
2016-Jul-01 16:27 045 0 gusting 2 22.8
2016-Jul-01 16:22 068 0 gusting 3 22.8
2016-Jul-01 16:17 113 1 gusting 5 22.8
2016-Jul-01 16:12 090 1 gusting 5 22.8
2016-Jul-01 16:07 068 1 gusting 5 22.8
2016-Jul-01 16:02 045 1 gusting 6 22.8
2016-Jul-01 15:57 068 1 gusting 6 22.8
2016-Jul-01 15:52 068 1 gusting 6 22.8
2016-Jul-01 15:47 023 1 gusting 2 23.3
2016-Jul-01 15:42 023 1 gusting 3 23.3
2016-Jul-01 15:37 135 1 gusting 3 22.8
2016-Jul-01 15:32 068 1 gusting 3 23.3
2016-Jul-01 15:27 068 1 gusting 3 23.3
2016-Jul-01 15:22 090 1 gusting 3 23.3
2016-Jul-01 15:17 068 0 gusting 3 23.3
2016-Jul-01 15:12 068 1 gusting 3 23.3
2016-Jul-01 15:07 113 1 gusting 3 23.3
2016-Jul-01 15:02 045 1 gusting 3 23.3
2016-Jul-01 14:57 180 1 gusting 5 23.3
2016-Jul-01 14:52 045 1 gusting 5 23.3
2016-Jul-01 14:47 113 2 gusting 5 23.9
2016-Jul-01 14:42 068 2 gusting 6 23.9
2016-Jul-01 14:37 315 1 gusting 6 23.9
2016-Jul-01 14:32 068 2 gusting 6 23.9
2016-Jul-01 14:27 180 2 gusting 4 23.9
2016-Jul-01 14:22 068 1 gusting 4 23.9
2016-Jul-01 14:17 068 1 gusting 4 23.9
2016-Jul-01 14:12 068 2 gusting 4 23.9
2016-Jul-01 14:07 090 2 gusting 4 23.9
2016-Jul-01 14:02 068 2 gusting 6 23.9
2016-Jul-01 13:57 045 2 gusting 6 23.9
2016-Jul-01 13:52 293 3 gusting 6 23.9
2016-Jul-01 13:47 113 2 gusting 7 23.9
2016-Jul-01 13:42 203 2 gusting 7 23.9
2016-Jul-01 13:37 090 2 gusting 7 23.9
2016-Jul-01 13:32 068 2 gusting 4 23.9
2016-Jul-01 13:27 023 1 gusting 4 23.9
2016-Jul-01 13:22 068 2 gusting 4 23.9
2016-Jul-01 13:17 090 1 gusting 4 23.9
2016-Jul-01 13:12 090 1 gusting 5 23.9
2016-Jul-01 13:07 068 2 gusting 5 23.9
2016-Jul-01 13:02 090 2 gusting 5 23.9
2016-Jul-01 12:57 068 2 gusting 4 23.9
2016-Jul-01 12:52 045 1 gusting 4 23.9
2016-Jul-01 12:47 068 2 gusting 5 23.9
2016-Jul-01 12:42 068 3 gusting 5 23.9
2016-Jul-01 12:37 068 3 gusting 5 23.9
2016-Jul-01 12:32 068 2 gusting 6 23.9
2016-Jul-01 12:27 068 2 gusting 6 23.9
2016-Jul-01 12:22 135 2 gusting 7 23.9
2016-Jul-01 12:17 068 3 gusting 7 23.9
2016-Jul-01 12:12 068 2 gusting 7 23.9
2016-Jul-01 12:07 113 2 gusting 5 23.9
2016-Jul-01 12:02 045 3 gusting 3 23.9
2016-Jul-01 11:57 090 2 gusting 5 23.9
2016-Jul-01 11:52 293 2 gusting 5 23.9
2016-Jul-01 11:47 068 2 gusting 6 23.3
2016-Jul-01 11:42 045 2 gusting 6 23.3
2016-Jul-01 11:37 068 2 gusting 5 23.3
2016-Jul-01 11:32 023 2 gusting 5 23.3
2016-Jul-01 11:27 23.3
2016-Jul-01 11:22 158 2 gusting 6 23.3
2016-Jul-01 11:17 135 2 gusting 7 23.3
2016-Jul-01 11:12 090 2 gusting 7 23.3
2016-Jul-01 11:07 225 2 gusting 7 23.3
2016-Jul-01 11:02 068 2 gusting 4 23.3
2016-Jul-01 10:57 113 2 gusting 4 23.3
2016-Jul-01 10:52 023 2 gusting 4 23.3
2016-Jul-01 10:47 045 1 gusting 4 23.3
2016-Jul-01 10:42 068 3 gusting 4 23.3
2016-Jul-01 10:37 113 3 gusting 5 23.3
2016-Jul-01 10:32 068 3 gusting 5 23.3
2016-Jul-01 10:27 045 2 gusting 5 23.3
2016-Jul-01 10:22 068 1 gusting 5 23.9
2016-Jul-01 10:17 113 2 gusting 5 23.3
2016-Jul-01 10:12 113 3 gusting 5 23.3
2016-Jul-01 10:07 045 2 gusting 6 23.3
2016-Jul-01 10:02 113 2 gusting 6 23.3
2016-Jul-01 09:57 135 3 gusting 6 23.3
2016-Jul-01 09:52 068 3 gusting 6 23.3
2016-Jul-01 09:47 045 2 gusting 6 23.3
2016-Jul-01 09:42 158 3 gusting 6 23.3
2016-Jul-01 09:37 135 3 gusting 6 23.3
2016-Jul-01 09:32 068 3 gusting 6 22.8
2016-Jul-01 09:27 135 3 gusting 6 23.3
2016-Jul-01 09:22 068 3 gusting 4 23.3
2016-Jul-01 09:17 068 3 gusting 4 23.3
2016-Jul-01 09:12 135 2 gusting 3 22.8
2016-Jul-01 09:07 135 2 gusting 4 22.8
2016-Jul-01 09:02 090 2 gusting 4 22.8
2016-Jul-01 08:57 045 2 gusting 4 22.8
2016-Jul-01 08:52 135 2 gusting 4 22.8
2016-Jul-01 08:47 248 2 gusting 6 22.8
2016-Jul-01 08:42 023 3 gusting 7 22.2
2016-Jul-01 08:37 068 3 gusting 7 22.8
2016-Jul-01 08:32 068 4 gusting 7 22.2
2016-Jul-01 08:27 068 4 gusting 5 22.2
2016-Jul-01 08:22 045 3 gusting 5 22.2
2016-Jul-01 08:17 068 2 gusting 5 22.2
2016-Jul-01 08:12 315 2 gusting 5 22.2
2016-Jul-01 08:07 045 3 gusting 5 22.2
2016-Jul-01 08:02 068 2 gusting 5 22.2
2016-Jul-01 07:57 113 2 gusting 5 22.2
2016-Jul-01 07:52 045 2 gusting 5 22.2
2016-Jul-01 07:47 090 2 gusting 5 21.7
2016-Jul-01 07:42 090 2 gusting 5 21.7
2016-Jul-01 07:37 113 1 gusting 5 21.7
2016-Jul-01 07:32 045 1 gusting 4 21.7
2016-Jul-01 07:27 293 2 gusting 3 21.1
2016-Jul-01 07:22 068 1 gusting 3 21.1
2016-Jul-01 07:17 068 2 gusting 6 21.1
2016-Jul-01 07:12 045 3 gusting 6 21.1
2016-Jul-01 07:07 068 3 gusting 6 21.1
2016-Jul-01 07:02 113 2 gusting 5 21.1
2016-Jul-01 06:57 068 2 gusting 4 20.6
2016-Jul-01 06:52 270 1 gusting 3 20.6
2016-Jul-01 06:47 068 1 gusting 3 20.6
2016-Jul-01 06:42 068 1 gusting 3 20.6
2016-Jul-01 06:37 023 0 gusting 3 20.6
2016-Jul-01 06:32 023 1 gusting 5 21.1
2016-Jul-01 06:27 045 1 gusting 5 20.6
2016-Jul-01 06:22 045 1 gusting 5 21.1
2016-Jul-01 06:17 180 1 gusting 3 21.1
2016-Jul-01 06:12 113 1 gusting 3 21.1
2016-Jul-01 06:07 113 1 gusting 3 21.1
2016-Jul-01 06:02 068 0 gusting 2 21.1
2016-Jul-01 05:57 045 0 gusting 2 20.6
2016-Jul-01 05:52 068 0 gusting 2 20.6
2016-Jul-01 05:47 068 1 gusting 2 20.6
2016-Jul-01 05:42 113 1 gusting 2 20.6
2016-Jul-01 05:37 338 0 gusting 2 20.0
2016-Jul-01 05:32 180 0 gusting 2 20.0
2016-Jul-01 05:27 045 0 gusting 2 20.0
2016-Jul-01 05:22 068 0 gusting 3 19.4
2016-Jul-01 05:17 090 0 gusting 4 19.4
2016-Jul-01 05:12 090 1 gusting 4 19.4
2016-Jul-01 05:07 068 2 gusting 4 18.9
2016-Jul-01 05:02 068 2 gusting 3 18.9
2016-Jul-01 04:57 068 1 gusting 5 18.9
2016-Jul-01 04:52 045 2 gusting 5 18.3
2016-Jul-01 04:47 068 2 gusting 5 18.3
2016-Jul-01 04:42 068 1 gusting 3 17.8
2016-Jul-01 04:37 045 0 gusting 1 17.8
2016-Jul-01 04:32 068 17.8
2016-Jul-01 04:27 068 17.2
2016-Jul-01 04:22 045 0 gusting 2 17.2
2016-Jul-01 04:17 068 0 gusting 2 17.2
2016-Jul-01 04:12 068 1 gusting 2 17.2
2016-Jul-01 04:07 068 1 gusting 2 17.2
2016-Jul-01 04:02 068 0 gusting 3 17.2
2016-Jul-01 03:57 023 0 gusting 3 17.2
2016-Jul-01 03:52 045 1 gusting 3 17.2
2016-Jul-01 03:47 045 1 gusting 3 16.7
2016-Jul-01 03:42 16.7
2016-Jul-01 03:37 113 0 gusting 1 16.7
2016-Jul-01 03:32 068 0 gusting 3 16.7
2016-Jul-01 03:27 045 0 gusting 3 16.7
2016-Jul-01 03:22 023 0 gusting 3 16.1
2016-Jul-01 03:17 023 0 gusting 1 16.1
2016-Jul-01 03:12 023 0 gusting 1 16.1
2016-Jul-01 03:07 023 0 gusting 1 16.1
2016-Jul-01 03:02 023 0 gusting 2 16.1
2016-Jul-01 02:57 045 16.1
2016-Jul-01 02:52 023 16.1
2016-Jul-01 02:47 16.1
2016-Jul-01 02:42 113 16.1
2016-Jul-01 02:37 023 0 gusting 2 16.1
2016-Jul-01 02:32 068 0 gusting 2 16.1
2016-Jul-01 02:27 023 0 gusting 1 16.1
2016-Jul-01 02:22 023 0 gusting 2 15.6
2016-Jul-01 02:17 068 0 gusting 2 15.6
2016-Jul-01 02:12 045 0 gusting 2 15.6
2016-Jul-01 02:07 023 15.6
2016-Jul-01 02:02 023 0 gusting 4 15.6
2016-Jul-01 01:57 15.6
2016-Jul-01 01:52 023 0 gusting 2 15.6
2016-Jul-01 01:47 315 0 gusting 2 15.6
2016-Jul-01 01:42 023 0 gusting 1 15.0
2016-Jul-01 01:37 023 0 gusting 2 15.0
2016-Jul-01 01:32 338 0 gusting 2 15.0
2016-Jul-01 01:27 023 0 gusting 2 15.0
2016-Jul-01 01:22 15.0
2016-Jul-01 01:17 15.0
2016-Jul-01 01:12 023 15.0
2016-Jul-01 01:07 023 15.0
2016-Jul-01 01:02 338 14.4
2016-Jul-01 00:57 023 0 gusting 1 15.0
2016-Jul-01 00:52 315 0 gusting 1 15.0
2016-Jul-01 00:47 023 15.0
2016-Jul-01 00:42 338 15.0
2016-Jul-01 00:37 15.0
2016-Jul-01 00:32 338 15.0
2016-Jul-01 00:27 315 15.0
2016-Jul-01 00:22 023 15.0
2016-Jul-01 00:17 315 15.0
2016-Jul-01 00:12 315 15.0
2016-Jul-01 00:07 315 15.0
2016-Jul-01 00:02 338 15.6
2016-Jun-30 23:57 023 0 15.6
2016-Jun-30 23:52 15.6
2016-Jun-30 23:47 15.6
2016-Jun-30 23:42 023 15.6
2016-Jun-30 23:37 15.6
2016-Jun-30 23:32 023 15.6
2016-Jun-30 23:27 023 15.6
2016-Jun-30 23:22 023 15.6
2016-Jun-30 23:17 15.6
2016-Jun-30 23:12 338 15.6
2016-Jun-30 23:07 338 15.6
2016-Jun-30 23:02 338 15.6
2016-Jun-30 22:57 16.1
2016-Jun-30 22:52 16.1
2016-Jun-30 22:47 315 16.1
2016-Jun-30 22:42 315 16.1
2016-Jun-30 22:37 023 16.1
2016-Jun-30 22:32 338 16.1
2016-Jun-30 22:27 338 16.1
2016-Jun-30 22:22 338 16.7
2016-Jun-30 22:17 338 16.7
2016-Jun-30 22:12 315 16.7
2016-Jun-30 22:07 338 16.7
2016-Jun-30 22:02 16.7
2016-Jun-30 21:57 315 16.7
2016-Jun-30 21:52 315 17.2
2016-Jun-30 21:47 315 17.2
2016-Jun-30 21:42 315 17.2
2016-Jun-30 21:37 315 17.2
2016-Jun-30 21:32 315 17.8
2016-Jun-30 21:27 338 17.8
2016-Jun-30 21:22 315 17.8
2016-Jun-30 21:17 338 17.8
2016-Jun-30 21:12 315 18.3
2016-Jun-30 21:07 315 18.3
2016-Jun-30 20:57 315 18.3
2016-Jun-30 20:52 315 18.9
2016-Jun-30 20:47 315 18.9
2016-Jun-30 20:42 338 18.9
2016-Jun-30 20:37 18.9
2016-Jun-30 20:32 045 19.4
2016-Jun-30 20:27 338 19.4
2016-Jun-30 20:22 19.4
2016-Jun-30 20:17 023 19.4
2016-Jun-30 20:12 023 19.4
2016-Jun-30 20:07 023 0 gusting 1 20.0
2016-Jun-30 20:02 068 0 gusting 1 20.0
2016-Jun-30 19:57 023 0 gusting 1 20.0
2016-Jun-30 19:52 113 0 gusting 1 20.6
2016-Jun-30 19:47 068 0 gusting 1 20.6
2016-Jun-30 19:42 045 0 gusting 1 20.6
2016-Jun-30 19:37 068 20.6
2016-Jun-30 19:32 023 20.6
2016-Jun-30 19:27 338 21.1
2016-Jun-30 19:22 023 21.1
2016-Jun-30 19:17 023 21.1
2016-Jun-30 19:12 023 0 gusting 2 21.7
2016-Jun-30 19:07 023 0 gusting 2 21.7
2016-Jun-30 19:02 068 0 gusting 2 21.7
2016-Jun-30 18:57 068 0 gusting 2 21.7
2016-Jun-30 18:52 068 1 gusting 1 22.2
2016-Jun-30 18:47 068 0 gusting 1 22.2
2016-Jun-30 18:42 068 22.2
2016-Jun-30 18:37 045 0 gusting 3 22.2
2016-Jun-30 18:32 045 0 gusting 2 22.8
2016-Jun-30 18:27 045 0 gusting 2 22.8
2016-Jun-30 18:22 045 0 gusting 2 22.8
2016-Jun-30 18:17 068 0 gusting 2 22.8
2016-Jun-30 18:12 023 0 gusting 2 22.8
2016-Jun-30 18:07 045 0 gusting 2 23.3
2016-Jun-30 18:02 045 0 gusting 1 23.3
2016-Jun-30 17:57 068 0 gusting 3 23.3
2016-Jun-30 17:52 068 1 gusting 5 23.3
2016-Jun-30 17:47 045 1 gusting 5 23.3
2016-Jun-30 17:42 068 1 gusting 5 23.3
2016-Jun-30 17:37 068 1 gusting 3 23.3
2016-Jun-30 17:32 068 1 gusting 3 23.9
2016-Jun-30 17:27 045 1 gusting 5 23.9
2016-Jun-30 17:22 068 1 gusting 5 23.9
2016-Jun-30 17:17 113 1 gusting 5 23.9
2016-Jun-30 17:12 113 2 gusting 3 23.9
2016-Jun-30 17:07 180 1 gusting 3 23.9
2016-Jun-30 17:02 248 1 gusting 3 23.9
2016-Jun-30 16:57 113 1 gusting 2 23.9
2016-Jun-30 16:52 068 1 gusting 3 24.4
2016-Jun-30 16:47 180 0 gusting 3 24.4
2016-Jun-30 16:42 135 0 gusting 3 24.4
2016-Jun-30 16:37 068 0 gusting 2 24.4
2016-Jun-30 16:32 068 0 gusting 2 24.4
2016-Jun-30 16:27 023 0 gusting 4 24.4
2016-Jun-30 16:22 090 1 gusting 4 24.4
2016-Jun-30 16:17 068 1 gusting 4 24.4
2016-Jun-30 16:12 068 1 gusting 2 25.0
2016-Jun-30 16:07 068 1 gusting 3 25.0
2016-Jun-30 16:02 023 1 gusting 3 25.0
2016-Jun-30 15:57 068 1 gusting 3 25.0
2016-Jun-30 15:52 045 1 gusting 2 25.0
2016-Jun-30 15:47 045 1 gusting 2 25.0
2016-Jun-30 15:42 090 1 gusting 2 25.0
2016-Jun-30 15:37 158 1 gusting 2 25.0
2016-Jun-30 15:32 068 1 gusting 2 25.0
2016-Jun-30 15:27 068 1 gusting 2 25.0
2016-Jun-30 15:22 068 0 gusting 2 25.0
2016-Jun-30 15:17 113 1 gusting 2 25.0
2016-Jun-30 15:12 068 1 gusting 2 25.0
2016-Jun-30 15:07 113 1 gusting 2 25.6
2016-Jun-30 15:02 068 1 gusting 4 25.0
2016-Jun-30 14:57 113 1 gusting 4 25.0
2016-Jun-30 14:52 090 1 gusting 4 25.6
2016-Jun-30 14:47 045 1 gusting 2 25.6
2016-Jun-30 14:42 113 1 gusting 2 25.6
2016-Jun-30 14:32 158 1 gusting 3 25.6
2016-Jun-30 14:28 068 1 gusting 3 25.6
2016-Jun-30 14:22 113 1 gusting 6 25.6
2016-Jun-30 14:17 045 1 gusting 6 25.6
2016-Jun-30 14:12 068 1 gusting 3 25.6
2016-Jun-30 14:07 068 1 gusting 3 25.6
2016-Jun-30 14:02 158 1 gusting 5 25.6
2016-Jun-30 13:57 068 1 gusting 5 25.6
2016-Jun-30 13:52 113 1 gusting 4 25.6
2016-Jun-30 13:47 113 1 gusting 4 25.6
2016-Jun-30 13:42 135 1 gusting 4 25.0
2016-Jun-30 13:37 113 1 gusting 3 25.6
2016-Jun-30 13:32 045 1 gusting 4 25.0
2016-Jun-30 13:27 158 2 gusting 5 25.0
2016-Jun-30 13:22 023 3 gusting 5 25.0
2016-Jun-30 13:17 045 2 gusting 5 25.0
2016-Jun-30 13:12 068 1 gusting 3 25.0
2016-Jun-30 13:07 293 1 gusting 4 25.0
2016-Jun-30 13:02 068 2 gusting 4 24.4
2016-Jun-30 12:57 068 1 gusting 6 24.4
2016-Jun-30 12:52 045 1 gusting 6 24.4
2016-Jun-30 12:47 338 1 gusting 6 24.4
2016-Jun-30 12:42 338 1 gusting 4 24.4
2016-Jun-30 12:37 045 1 gusting 4 24.4
2016-Jun-30 12:32 24.4
2016-Jun-30 12:27 113 2 gusting 3 24.4
2016-Jun-30 12:22 068 0 gusting 3 24.4
2016-Jun-30 12:17 135 0 gusting 3 24.4
2016-Jun-30 12:12 113 1 gusting 6 24.4
2016-Jun-30 12:07 068 1 gusting 6 24.4
2016-Jun-30 12:02 113 1 gusting 6 24.4
2016-Jun-30 11:57 135 1 gusting 4 24.4
2016-Jun-30 11:52 023 1 gusting 4 23.9
2016-Jun-30 11:47 135 1 gusting 4 23.9
2016-Jun-30 11:42 113 0 gusting 3 23.9
2016-Jun-30 11:37 068 0 gusting 3 23.9
2016-Jun-30 11:32 068 0 gusting 3 23.9
2016-Jun-30 11:27 113 1 gusting 3 23.9
2016-Jun-30 11:22 045 1 gusting 2 23.9
2016-Jun-30 11:17 23.9
2016-Jun-30 11:12 045 1 gusting 2 23.9
2016-Jun-30 11:07 315 1 gusting 2 23.9
2016-Jun-30 11:02 113 0 gusting 2 23.9
2016-Jun-30 10:57 315 0 gusting 2 23.9
2016-Jun-30 10:52 068 1 gusting 4 23.9
2016-Jun-30 10:47 023 1 gusting 4 23.9
2016-Jun-30 10:42 023 1 gusting 3 23.9
2016-Jun-30 10:37 158 1 gusting 3 23.9
2016-Jun-30 10:32 023 1 gusting 3 23.9
2016-Jun-30 10:27 023 0 gusting 4 23.9
2016-Jun-30 10:22 315 1 gusting 4 23.9
2016-Jun-30 10:17 068 0 gusting 4 23.9
2016-Jun-30 10:12 203 0 gusting 3 23.9
2016-Jun-30 10:07 113 1 gusting 3 23.9
2016-Jun-30 10:02 158 0 gusting 3 23.9
2016-Jun-30 09:57 068 1 gusting 3 23.9
2016-Jun-30 09:52 023 0 gusting 3 23.3
2016-Jun-30 09:47 068 0 gusting 3 23.9
2016-Jun-30 09:42 113 0 gusting 4 23.3
2016-Jun-30 09:37 113 1 gusting 5 23.3
2016-Jun-30 09:32 113 1 gusting 5 23.3
2016-Jun-30 09:27 090 1 gusting 5 23.3
2016-Jun-30 09:22 068 1 gusting 3 23.3
2016-Jun-30 09:17 023 1 gusting 3 23.3
2016-Jun-30 09:12 158 2 gusting 3 22.2
2016-Jun-30 09:07 158 2 gusting 3 22.2
2016-Jun-30 09:02 180 2 gusting 3 22.8
2016-Jun-30 08:57 090 1 gusting 1 22.2
2016-Jun-30 08:52 045 0 gusting 1 22.2
2016-Jun-30 08:47 068 22.2
2016-Jun-30 08:42 338 22.2
2016-Jun-30 08:37 293 0 gusting 2 22.2
2016-Jun-30 08:32 090 0 gusting 5 22.2
2016-Jun-30 08:27 338 1 gusting 5 22.2
2016-Jun-30 08:22 22.2
2016-Jun-30 08:17 045 2 gusting 5 22.2
2016-Jun-30 08:12 338 1 gusting 5 22.2
2016-Jun-30 08:07 023 2 gusting 5 22.2
2016-Jun-30 08:02 023 1 gusting 5 22.2
2016-Jun-30 07:57 023 0 gusting 2 21.7
2016-Jun-30 07:52 023 1 gusting 2 21.7
2016-Jun-30 07:47 023 0 gusting 2 21.7
2016-Jun-30 07:42 068 0 gusting 3 21.7
2016-Jun-30 07:37 135 0 gusting 3 21.7
2016-Jun-30 07:32 090 1 gusting 5 21.7
2016-Jun-30 07:27 068 2 gusting 5 21.7
2016-Jun-30 07:22 338 1 gusting 5 21.1
2016-Jun-30 07:17 023 1 gusting 3 21.1
2016-Jun-30 07:12 023 1 gusting 3 21.1
2016-Jun-30 07:07 023 1 gusting 3 21.1
2016-Jun-30 07:02 338 0 gusting 3 20.6
2016-Jun-30 06:57 068 1 gusting 3 20.6
2016-Jun-30 06:52 338 1 gusting 3 20.0
2016-Jun-30 06:47 338 1 gusting 3 20.0
2016-Jun-30 06:42 045 1 gusting 3 19.4
2016-Jun-30 06:37 315 1 gusting 3 19.4
2016-Jun-30 06:32 315 1 gusting 3 18.9
2016-Jun-30 06:27 315 1 gusting 3 18.9
2016-Jun-30 06:22 293 1 gusting 3 18.9
2016-Jun-30 06:17 315 1 gusting 3 18.3
2016-Jun-30 06:12 315 0 gusting 3 18.3
2016-Jun-30 06:07 315 0 gusting 1 17.8
2016-Jun-30 06:02 023 0 gusting 1 17.2
2016-Jun-30 05:57 293 0 gusting 3 17.2
2016-Jun-30 05:52 17.2
2016-Jun-30 05:47 16.7
2016-Jun-30 05:42 023 1 gusting 2 16.7
2016-Jun-30 05:37 135 1 gusting 3 16.1
2016-Jun-30 05:32 068 1 gusting 3 16.1
2016-Jun-30 05:27 338 0 gusting 3 16.1
2016-Jun-30 05:22 338 0 gusting 3 16.1
2016-Jun-30 05:17 15.6
2016-Jun-30 05:12 045 0 gusting 2 15.6
2016-Jun-30 05:07 023 15.6
2016-Jun-30 05:02 045 15.6
2016-Jun-30 04:57 023 15.6
2016-Jun-30 04:52 023 15.6
2016-Jun-30 04:47 023 15.6
2016-Jun-30 04:42 023 15.6
2016-Jun-30 04:37 315 15.6
2016-Jun-30 04:32 023 15.6
2016-Jun-30 04:27 023 15.0
2016-Jun-30 04:22 225 15.0
2016-Jun-30 04:17 023 15.0
2016-Jun-30 04:12 023 15.0
2016-Jun-30 04:07 158 15.0
2016-Jun-30 04:02 023 15.0
2016-Jun-30 03:57 023 0 gusting 2 15.0
2016-Jun-30 03:52 338 15.0
2016-Jun-30 03:47 023 15.0
2016-Jun-30 03:42 068 15.0
2016-Jun-30 03:37 068 15.0
2016-Jun-30 03:32 023 14.4
2016-Jun-30 03:27 023 0 gusting 2 14.4
2016-Jun-30 03:22 023 14.4
2016-Jun-30 03:17 338 14.4
2016-Jun-30 03:12 315 0 gusting 2 14.4
2016-Jun-30 03:07 315 0 gusting 2 14.4
2016-Jun-30 03:02 023 14.4
2016-Jun-30 02:57 338 14.4
2016-Jun-30 02:52 14.4
2016-Jun-30 02:47 338 14.4
2016-Jun-30 02:42 023 14.4
2016-Jun-30 02:37 023 14.4
2016-Jun-30 02:32 023 0 gusting 2 14.4
2016-Jun-30 02:27 023 0 gusting 2 14.4
2016-Jun-30 02:22 023 0 gusting 2 14.4
2016-Jun-30 02:17 023 0 gusting 1 14.4
2016-Jun-30 02:12 023 0 gusting 1 14.4
2016-Jun-30 02:07 045 14.4
2016-Jun-30 02:02 315 14.4
2016-Jun-30 01:57 023 14.4
2016-Jun-30 01:52 338 14.4
2016-Jun-30 01:47 315 14.4
2016-Jun-30 01:42 023 14.4
2016-Jun-30 01:37 045 14.4
2016-Jun-30 01:32 023 14.4
2016-Jun-30 01:27 14.4
2016-Jun-30 01:22 023 14.4
2016-Jun-30 01:17 023 14.4
2016-Jun-30 01:12 023 14.4
2016-Jun-30 01:07 045 14.4
2016-Jun-30 01:02 045 14.4
2016-Jun-30 00:57 023 14.4
2016-Jun-30 00:52 045 14.4
2016-Jun-30 00:47 045 14.4
2016-Jun-30 00:42 14.4
2016-Jun-30 00:37 338 0 gusting 2 14.4
2016-Jun-30 00:32 338 14.4
2016-Jun-30 00:27 315 14.4
2016-Jun-30 00:22 023 14.4
2016-Jun-30 00:17 338 14.4
2016-Jun-30 00:12 023 14.4
2016-Jun-30 00:07 023 14.4
2016-Jun-30 00:02 023 14.4
2016-Jun-29 23:57 14.4
2016-Jun-29 23:52 338 14.4
2016-Jun-29 23:47 045 14.4
2016-Jun-29 23:42 315 14.4
2016-Jun-29 23:37 315 14.4
2016-Jun-29 23:32 023 14.4
2016-Jun-29 23:27 023 14.4
2016-Jun-29 23:22 315 14.4
2016-Jun-29 23:17 315 14.4
2016-Jun-29 23:12 113 14.4
2016-Jun-29 23:07 113 15.0
2016-Jun-29 23:02 113 15.0
2016-Jun-29 22:57 113 15.0
2016-Jun-29 22:52 090 15.0
2016-Jun-29 22:47 113 15.0
2016-Jun-29 22:42 113 15.0
2016-Jun-29 22:37 090 15.0
2016-Jun-29 22:32 090 15.0
2016-Jun-29 22:27 113 15.6
2016-Jun-29 22:22 113 15.0
2016-Jun-29 22:17 113 15.6
2016-Jun-29 22:12 315 15.6
2016-Jun-29 22:07 338 15.6
2016-Jun-29 22:02 338 15.6
2016-Jun-29 21:57 158 15.6
2016-Jun-29 21:52 135 15.6
2016-Jun-29 21:47 135 15.6
2016-Jun-29 21:42 068 15.6
2016-Jun-29 21:37 225 16.1
2016-Jun-29 21:32 158 16.1
2016-Jun-29 21:27 135 16.1
2016-Jun-29 21:22 180 16.1
2016-Jun-29 21:17 135 16.1
2016-Jun-29 21:12 16.7
2016-Jun-29 21:07 16.7
2016-Jun-29 20:57 16.7
2016-Jun-29 20:52 338 16.7
2016-Jun-29 20:47 16.7
2016-Jun-29 20:42 338 17.2
2016-Jun-29 20:37 315 17.2
2016-Jun-29 20:32 293 17.2
2016-Jun-29 20:27 270 17.2
2016-Jun-29 20:22 315 17.8
2016-Jun-29 20:17 315 17.8
2016-Jun-29 20:12 293 17.8
2016-Jun-29 20:07 293 17.8
2016-Jun-29 20:02 293 18.3
2016-Jun-29 19:57 315 17.8
2016-Jun-29 19:52 338 18.3
2016-Jun-29 19:47 338 18.3
2016-Jun-29 19:42 338 18.3
2016-Jun-29 19:37 315 18.3
2016-Jun-29 19:32 338 18.3
2016-Jun-29 19:27 338 18.3
2016-Jun-29 19:22 023 18.3
2016-Jun-29 19:17 18.3
2016-Jun-29 19:12 338 18.3
2016-Jun-29 19:07 293 18.3
2016-Jun-29 19:02 338 18.3
2016-Jun-29 18:57 338 18.3
2016-Jun-29 18:52 338 18.3
2016-Jun-29 18:47 315 18.3
2016-Jun-29 18:42 023 18.9
2016-Jun-29 18:37 023 18.9
2016-Jun-29 18:32 315 18.9
2016-Jun-29 18:27 315 18.9
2016-Jun-29 18:22 023 18.9
2016-Jun-29 18:17 18.9
2016-Jun-29 18:12 18.9
2016-Jun-29 18:07 315 18.9
2016-Jun-29 18:02 315 18.9
2016-Jun-29 17:57 315 18.9
2016-Jun-29 17:52 315 18.9
2016-Jun-29 17:47 315 18.9
2016-Jun-29 17:42 338 18.9
2016-Jun-29 17:37 18.9
2016-Jun-29 17:32 315 18.9
2016-Jun-29 17:27 338 19.4
2016-Jun-29 17:22 023 19.4
2016-Jun-29 17:17 338 19.4
2016-Jun-29 17:12 338 19.4
2016-Jun-29 17:07 338 19.4
2016-Jun-29 17:02 315 19.4